This is the latest recevied weather packets stored in our database for station/object KC1BRV. If no packets are shown the sender has not sent any weather packets the latest 1 day(s).
| Time | Temp. | Humidity | Pressure | Rain* | Wind** | Luminosity | Snow |
|---|---|---|---|---|---|---|---|
| 1778022613 | 15.56° C | 70% | 1010.8 hPa | 0 mm | 0.45 m/s, 60° | 23 W/m² | - |
| 1778022309 | 15.56° C | 70% | 1011 hPa | 0 mm | 0 m/s | 27 W/m² | - |
| 1778022006 | 15.56° C | 70% | 1010.9 hPa | 0 mm | 0.45 m/s, 113° | 32 W/m² | - |
| 1778021703 | 16.11° C | 69% | 1010.9 hPa | 0 mm | 0.89 m/s, 71° | 35 W/m² | - |
| 1778021399 | 16.11° C | 68% | 1011.1 hPa | 0 mm | 0 m/s | 39 W/m² | - |
| 1778021096 | 16.67° C | 68% | 1011.1 hPa | 0 mm | 0.89 m/s, 101° | 42 W/m² | - |
| 1778020793 | 16.67° C | 68% | 1011 hPa | 0 mm | 0 m/s | 49 W/m² | - |
| 1778020490 | 16.67° C | 67% | 1010.8 hPa | 0 mm | 0.45 m/s, 291° | 52 W/m² | - |
| 1778020186 | 16.67° C | 66% | 1011.1 hPa | 0 mm | 0.45 m/s, 66° | 57 W/m² | - |
| 1778019883 | 17.22° C | 66% | 1010.8 hPa | 0 mm | 0.89 m/s, 130° | 59 W/m² | - |
| 1778019578 | 17.22° C | 66% | 1010.7 hPa | 0 mm | 0.45 m/s, 107° | 63 W/m² | - |
| 1778019276 | 17.22° C | 65% | 1010.6 hPa | 0 mm | 0.45 m/s, 83° | 57 W/m² | - |
| 1778018973 | 17.22° C | 65% | 1010.8 hPa | 0 mm | 1.34 m/s, 205° | 60 W/m² | - |
| 1778018670 | 17.78° C | 63% | 1010.6 hPa | 0 mm | 0.89 m/s, 131° | 50 W/m² | - |
| 1778018368 | 17.78° C | 62% | 1010.8 hPa | 0 mm | 0.89 m/s, 3° | 52 W/m² | - |
| 1778018066 | 18.33° C | 61% | 1010.7 hPa | 0 mm | 0.89 m/s, 124° | 55 W/m² | - |
| 1778017763 | 18.33° C | 61% | 1010.6 hPa | 0 mm | 0 m/s | 55 W/m² | - |
| 1778017461 | 18.89° C | 59% | 1010.7 hPa | 0 mm | 1.34 m/s, 135° | 52 W/m² | - |
| 1778017158 | 18.89° C | 59% | 1010.4 hPa | 0 mm | 0.89 m/s, 185° | 50 W/m² | - |
| 1778016856 | 19.44° C | 57% | 1010.7 hPa | 0 mm | 0.89 m/s, 97° | 49 W/m² | - |
| 1778016551 | 20° C | 56% | 1010.6 hPa | 0 mm | 0.89 m/s, 186° | 50 W/m² | - |
| 1778016248 | 20° C | 55% | 1010.4 hPa | 0 mm | 0.89 m/s, 46° | 51 W/m² | - |
| 1778015945 | 20° C | 55% | 1010.3 hPa | 0 mm | 3.13 m/s, 131° | 52 W/m² | - |
| 1778015643 | 20° C | 56% | 1010.4 hPa | 0 mm | 0 m/s | 54 W/m² | - |
| 1778015338 | 20° C | 55% | 1010.4 hPa | 0 mm | 2.68 m/s, 126° | 54 W/m² | - |
* Rain latest hour (hover to see other rain measurements)
** Current wind speed in m/s (hover to see current wind gust speed)